| time (UTC) | temp C | wind direction | speed KPH | gust KPH | rain 1hr cm | rain 24hr cm | rain mn cm | humidity % | barometer mb |
| 20260507151426 | 10 | 164 | 20.9 | 29.0 | 0.00 | 0.00 | 0.00 | 63 | 1018.1 |
| 20260507150923 | 8 | 190 | 19.3 | 22.5 | 0.00 | 0.00 | 0.00 | 66 | 1018.3 |
| 20260507150420 | 9 | 198 | 11.3 | 22.5 | 0.00 | 0.00 | 0.00 | 65 | 1018.3 |
| 20260507145916 | 8 | 145 | 12.9 | 19.3 | 0.00 | 0.00 | 0.00 | 65 | 1018.2 |
| 20260507145412 | 8 | 158 | 12.9 | 19.3 | 0.00 | 0.00 | 0.00 | 66 | 1018.3 |
| 20260507144909 | 8 | 156 | 16.1 | 19.3 | 0.00 | 0.00 | 0.00 | 67 | 1018.3 |
| 20260507144406 | 8 | 152 | 17.7 | 24.1 | 0.00 | 0.00 | 0.00 | 67 | 1018.4 |
| 20260507143903 | 8 | 198 | 9.7 | 19.3 | 0.00 | 0.00 | 0.00 | 67 | 1018.3 |
| 20260507143401 | 8 | 206 | 17.7 | 22.5 | 0.00 | 0.00 | 0.00 | 67 | 1018.3 |
| 20260507142857 | 8 | 178 | 11.3 | 12.9 | 0.00 | 0.00 | 0.00 | 68 | 1018.3 |
| 20260507142353 | 8 | 110 | 11.3 | 14.5 | 0.00 | 0.00 | 0.00 | 72 | 1018.8 |
| 20260507141850 | 7 | 194 | 6.4 | 8.0 | 0.00 | 0.00 | 0.00 | 76 | 1018.4 |
| 20260507141346 | 6 | 138 | 1.6 | 12.9 | 0.00 | 0.00 | 0.00 | 83 | 1018.4 |
| 20260507140843 | 6 | 215 | 9.7 | 9.7 | 0.00 | 0.00 | 0.00 | 89 | 1018.7 |
| 20260507140339 | 6 | 87 | 3.2 | 11.3 | 0.00 | 0.00 | 0.00 | 92 | 1018.3 |
| 20260507135838 | 5 | 352 | 4.8 | 6.4 | 0.00 | 0.00 | 0.00 | 94 | 1018.4 |
| 20260507135334 | 5 | 239 | 4.8 | 8.0 | 0.00 | 0.00 | 0.00 | 96 | 1018.5 |
| 20260507134832 | 5 | 347 | 8.0 | 11.3 | 0.00 | 0.00 | 0.00 | 96 | 1018.5 |
| 20260507134327 | 5 | 325 | 8.0 | 11.3 | 0.00 | 0.00 | 0.00 | 97 | 1018.7 |
| 20260507133824 | 5 | 326 | 9.7 | 12.9 | 0.00 | 0.00 | 0.00 | 97 | 1018.7 |
| 20260507133319 | 4 | 342 | 14.5 | 16.1 | 0.00 | 0.00 | 0.00 | 97 | 1018.4 |
| 20260507132818 | 4 | 339 | 8.0 | 11.3 | 0.00 | 0.00 | 0.00 | 97 | 1018.4 |
| 20260507132314 | 3 | 335 | 9.7 | 12.9 | 0.00 | 0.00 | 0.00 | 97 | 1018.7 |
| 20260507131812 | 3 | 339 | 11.3 | 14.5 | 0.00 | 0.00 | 0.00 | 97 | 1018.3 |
| 20260507131308 | 3 | 352 | 11.3 | 12.9 | 0.00 | 0.00 | 0.00 | 97 | 1018.5 |
| 20260507130804 | 3 | 359 | 11.3 | 14.5 | 0.00 | 0.00 | 0.00 | 96 | 1018.8 |
| 20260507130302 | 3 | 358 | 8.0 | 14.5 | 0.00 | 0.00 | 0.00 | 96 | 1018.7 |
| 20260507125801 | 3 | 340 | 11.3 | 16.1 | 0.00 | 0.00 | 0.00 | 96 | 1018.4 |
| 20260507125258 | 2 | 344 | 12.9 | 19.3 | 0.00 | 0.00 | 0.00 | 96 | 1018.2 |
| 20260507124755 | 2 | 335 | 16.1 | 19.3 | 0.00 | 0.00 | 0.00 | 96 | 1018.4 |
| 20260507124251 | 2 | 338 | 16.1 | 17.7 | 0.00 | 0.00 | 0.00 | 96 | 1018.5 |
| 20260507123750 | 2 | 335 | 12.9 | 14.5 | 0.00 | 0.00 | 0.00 | 95 | 1018.4 |
| 20260507123247 | 2 | 341 | 9.7 | 12.9 | 0.00 | 0.00 | 0.00 | 95 | 1018.3 |
| 20260507122742 | 2 | 353 | 9.7 | 11.3 | 0.00 | 0.00 | 0.00 | 95 | 1018.2 |
| 20260507122238 | 1 | 337 | 12.9 | 16.1 | 0.00 | 0.00 | 0.00 | 95 | 1018.3 |
| 20260507121734 | 1 | 352 | 11.3 | 14.5 | 0.00 | 0.00 | 0.00 | 94 | 1018.1 |
| 20260507121230 | 1 | 349 | 9.7 | 14.5 | 0.00 | 0.00 | 0.00 | 94 | 1018.1 |
| 20260507120726 | 1 | 350 | 11.3 | 16.1 | 0.00 | 0.00 | 0.00 | 94 | 1018.2 |
| 20260507120224 | 1 | 333 | 14.5 | 17.7 | 0.00 | 0.00 | 0.00 | 93 | 1018.0 |
| 20260507115720 | 1 | 349 | 14.5 | 19.3 | 0.00 | 0.00 | 0.00 | 92 | 1018.1 |
| 20260507115216 | 1 | 338 | 17.7 | 19.3 | 0.00 | 0.00 | 0.00 | 92 | 1018.1 |
| 20260507114711 | 2 | 337 | 16.1 | 17.7 | 0.00 | 0.00 | 0.00 | 92 | 1017.9 |
| 20260507114209 | 2 | 348 | 8.0 | 14.5 | 0.00 | 0.00 | 0.00 | 91 | 1017.9 |
| 20260507113706 | 1 | 347 | 9.7 | 11.3 | 0.00 | 0.00 | 0.00 | 91 | 1017.9 |
| 20260507113203 | 1 | 2 | 8.0 | 11.3 | 0.00 | 0.00 | 0.00 | 91 | 1018.1 |
| 20260507112701 | 1 | 356 | 6.4 | 9.7 | 0.00 | 0.00 | 0.00 | 91 | 1017.7 |
| 20260507112157 | 2 | 1 | 8.0 | 11.3 | 0.00 | 0.00 | 0.00 | 91 | 1017.9 |
| 20260507111655 | 2 | 351 | 8.0 | 8.0 | 0.00 | 0.00 | 0.00 | 91 | 1017.7 |
| 20260507111152 | 2 | 355 | 9.7 | 12.9 | 0.00 | 0.00 | 0.00 | 91 | 1018.0 |
| 20260507110647 | 2 | 351 | 8.0 | 9.7 | 0.00 | 0.00 | 0.00 | 91 | 1018.0 |
| 20260507110144 | 2 | 355 | 8.0 | 9.7 | 0.00 | 0.00 | 0.00 | 91 | 1017.7 |
| 20260507105641 | 2 | 349 | 8.0 | 9.7 | 0.00 | 0.00 | 0.00 | 91 | 1017.6 |
| 20260507105137 | 2 | 355 | 9.7 | 12.9 | 0.00 | 0.00 | 0.00 | 91 | 1017.7 |
| 20260507104634 | 2 | 344 | 9.7 | 12.9 | 0.00 | 0.00 | 0.00 | 90 | 1017.9 |
| 20260507104131 | 2 | 0 | 8.0 | 11.3 | 0.00 | 0.00 | 0.00 | 90 | 1017.9 |
| 20260507103627 | 2 | 358 | 8.0 | 11.3 | 0.00 | 0.00 | 0.00 | 90 | 1017.7 |
| 20260507103124 | 2 | 2 | 6.4 | 9.7 | 0.00 | 0.00 | 0.00 | 89 | 1018.0 |
| 20260507102621 | 2 | 7 | 8.0 | 12.9 | 0.00 | 0.00 | 0.00 | 89 | 1017.9 |
| 20260507102117 | 2 | 21 | 8.0 | 14.5 | 0.00 | 0.00 | 0.00 | 89 | 1017.9 |
| 20260507101613 | 3 | 12 | 11.3 | 12.9 | 0.00 | 0.00 | 0.00 | 89 | 1018.0 |
| 20260507101109 | 3 | 357 | 11.3 | 12.9 | 0.00 | 0.00 | 0.00 | 89 | 1018.0 |
| 20260507100606 | 3 | 358 | 8.0 | 11.3 | 0.00 | 0.00 | 0.00 | 88 | 1018.0 |
| 20260507100104 | 3 | 13 | 9.7 | 12.9 | 0.00 | 0.00 | 0.00 | 88 | 1017.9 |
| 20260507095602 | 3 | 0 | 11.3 | 12.9 | 0.00 | 0.00 | 0.00 | 88 | 1017.7 |
| 20260507095058 | 3 | 7 | 9.7 | 12.9 | 0.00 | 0.00 | 0.00 | 88 | 1017.7 |
| 20260507094554 | 3 | 4 | 11.3 | 14.5 | 0.00 | 0.00 | 0.00 | 87 | 1018.0 |
| 20260507094051 | 3 | 2 | 11.3 | 16.1 | 0.00 | 0.00 | 0.00 | 87 | 1017.9 |
| 20260507093549 | 3 | 17 | 11.3 | 14.5 | 0.00 | 0.00 | 0.00 | 87 | 1017.9 |
| 20260507093047 | 3 | 3 | 9.7 | 11.3 | 0.00 | 0.00 | 0.00 | 86 | 1017.6 |
| 20260507092543 | 3 | 14 | 9.7 | 12.9 | 0.00 | 0.00 | 0.00 | 86 | 1017.9 |
| 20260507092040 | 3 | 1 | 9.7 | 11.3 | 0.00 | 0.00 | 0.00 | 85 | 1017.9 |
| 20260507091537 | 3 | 3 | 9.7 | 12.9 | 0.00 | 0.00 | 0.00 | 85 | 1017.9 |
| 20260507091033 | 4 | 18 | 6.4 | 9.7 | 0.00 | 0.00 | 0.00 | 84 | 1017.7 |
| 20260507090529 | 4 | 8 | 9.7 | 12.9 | 0.00 | 0.00 | 0.00 | 84 | 1017.7 |
| 20260507090026 | 4 | 9 | 8.0 | 11.3 | 0.00 | 0.00 | 0.00 | 83 | 1017.6 |
| 20260507085523 | 4 | 0 | 4.8 | 8.0 | 0.00 | 0.00 | 0.00 | 82 | 1017.9 |
| 20260507085020 | 5 | 22 | 9.7 | 11.3 | 0.00 | 0.00 | 0.00 | 82 | 1017.9 |
| 20260507084516 | 5 | 15 | 8.0 | 12.9 | 0.00 | 0.00 | 0.00 | 81 | 1017.7 |
| 20260507084014 | 5 | 55 | 9.7 | 14.5 | 0.00 | 0.00 | 0.00 | 81 | 1017.7 |
| 20260507083510 | 5 | 20 | 8.0 | 14.5 | 0.00 | 0.00 | 0.00 | 80 | 1017.6 |
| 20260507083007 | 5 | 39 | 8.0 | 14.5 | 0.00 | 0.00 | 0.00 | 79 | 1017.6 |
| 20260507082503 | 5 | 46 | 6.4 | 14.5 | 0.00 | 0.00 | 0.00 | 78 | 1017.9 |
| 20260507081959 | 5 | 33 | 9.7 | 19.3 | 0.00 | 0.00 | 0.00 | 78 | 1018.0 |
| 20260507081455 | 5 | 13 | 19.3 | 19.3 | 0.00 | 0.00 | 0.00 | 78 | 1018.1 |
| 20260507080953 | 5 | 97 | 14.5 | 14.5 | 0.00 | 0.00 | 0.00 | 78 | 1017.4 |
| 20260507080448 | 5 | 88 | 16.1 | 24.1 | 0.00 | 0.00 | 0.00 | 78 | 1017.0 |
| 20260507075944 | 5 | 94 | 16.1 | 24.1 | 0.00 | 0.00 | 0.00 | 78 | 1017.3 |
| 20260507075440 | 5 | 103 | 17.7 | 25.7 | 0.00 | 0.00 | 0.00 | 78 | 1017.0 |
| 20260507074937 | 5 | 98 | 12.9 | 30.6 | 0.00 | 0.00 | 0.00 | 78 | 1016.8 |
| 20260507074434 | 5 | 95 | 20.9 | 27.4 | 0.00 | 0.00 | 0.00 | 79 | 1017.1 |
| 20260507073932 | 5 | 105 | 27.4 | 35.4 | 0.00 | 0.00 | 0.00 | 79 | 1016.8 |
| 20260507073428 | 5 | 110 | 30.6 | 35.4 | 0.00 | 0.00 | 0.00 | 80 | 1017.0 |
| 20260507072925 | 5 | 104 | 24.1 | 32.2 | 0.00 | 0.00 | 0.00 | 81 | 1017.1 |
| 20260507072422 | 5 | 101 | 24.1 | 25.7 | 0.00 | 0.00 | 0.00 | 81 | 1017.4 |
| 20260507071920 | 5 | 71 | 19.3 | 27.4 | 0.00 | 0.00 | 0.00 | 81 | 1017.6 |
| 20260507071417 | 5 | 86 | 27.4 | 30.6 | 0.00 | 0.00 | 0.00 | 81 | 1017.6 |
| 20260507070913 | 5 | 84 | 17.7 | 29.0 | 0.00 | 0.00 | 0.00 | 81 | 1018.1 |
| 20260507070410 | 6 | 55 | 14.5 | 25.7 | 0.00 | 0.00 | 0.00 | 81 | 1018.4 |
| 20260507065907 | 6 | 48 | 25.7 | 30.6 | 0.00 | 0.00 | 0.00 | 81 | 1018.1 |
| 20260507065404 | 6 | 64 | 17.7 | 24.1 | 0.00 | 0.00 | 0.00 | 80 | 1018.3 |
| 20260507064901 | 6 | 49 | 24.1 | 33.8 | 0.00 | 0.00 | 0.00 | 80 | 1018.7 |
| 20260507064359 | 6 | 47 | 19.3 | 32.2 | 0.00 | 0.00 | 0.00 | 79 | 1018.1 |
| 20260507063857 | 6 | 56 | 14.5 | 30.6 | 0.00 | 0.00 | 0.00 | 79 | 1018.5 |
| 20260507063354 | 6 | 52 | 20.9 | 33.8 | 0.00 | 0.00 | 0.00 | 78 | 1018.1 |
| 20260507062850 | 6 | 55 | 29.0 | 32.2 | 0.00 | 0.00 | 0.00 | 78 | 1018.3 |
| 20260507062347 | 6 | 30 | 20.9 | 33.8 | 0.00 | 0.00 | 0.00 | 77 | 1018.3 |
| 20260507061845 | 6 | 65 | 16.1 | 40.2 | 0.00 | 0.00 | 0.00 | 77 | 1018.2 |
| 20260507061343 | 6 | 58 | 30.6 | 41.8 | 0.00 | 0.00 | 0.00 | 77 | 1017.6 |
| 20260507060841 | 6 | 38 | 17.7 | 35.4 | 0.00 | 0.00 | 0.00 | 76 | 1018.2 |
| 20260507060337 | 6 | 24 | 14.5 | 29.0 | 0.00 | 0.00 | 0.00 | 75 | 1018.2 |
| 20260507055834 | 6 | 29 | 19.3 | 30.6 | 0.00 | 0.00 | 0.00 | 75 | 1018.2 |
| 20260507055329 | 6 | 23 | 12.9 | 33.8 | 0.00 | 0.00 | 0.00 | 75 | 1018.2 |
| 20260507054826 | 6 | 45 | 27.4 | 33.8 | 0.00 | 0.00 | 0.00 | 76 | 1018.3 |
| 20260507054322 | 6 | 59 | 12.9 | 40.2 | 0.00 | 0.00 | 0.00 | 76 | 1017.7 |
| 20260507053820 | 6 | 46 | 20.9 | 35.4 | 0.00 | 0.00 | 0.00 | 76 | 1017.5 |
| 20260507053317 | 6 | 23 | 16.1 | 40.2 | 0.00 | 0.00 | 0.00 | 75 | 1017.4 |
| 20260507052816 | 7 | 22 | 25.7 | 32.2 | 0.00 | 0.00 | 0.00 | 75 | 1017.9 |
| 20260507052312 | 7 | 42 | 17.7 | 40.2 | 0.00 | 0.00 | 0.00 | 75 | 1017.6 |
| 20260507051810 | 7 | 47 | 41.8 | 54.7 | 0.00 | 0.00 | 0.00 | 74 | 1017.4 |
| 20260507051308 | 7 | 49 | 27.4 | 49.9 | 0.00 | 0.00 | 0.00 | 72 | 1017.5 |
| 20260507050804 | 7 | 31 | 20.9 | 45.1 | 0.00 | 0.00 | 0.00 | 72 | 1017.6 |
| 20260507050300 | 7 | 27 | 17.7 | 46.7 | 0.00 | 0.00 | 0.00 | 72 | 1017.5 |
| 20260507045757 | 7 | 28 | 20.9 | 46.7 | 0.00 | 0.00 | 0.00 | 72 | 1017.3 |
| 20260507045254 | 7 | 31 | 24.1 | 48.3 | 0.00 | 0.00 | 0.00 | 71 | 1017.4 |
| 20260507044751 | 7 | 12 | 25.7 | 43.5 | 0.00 | 0.00 | 0.00 | 71 | 1017.5 |
| 20260507044247 | 7 | 37 | 32.2 | 45.1 | 0.00 | 0.00 | 0.00 | 69 | 1017.5 |
| 20260507043744 | 7 | 29 | 30.6 | 45.1 | 0.00 | 0.00 | 0.00 | 69 | 1017.4 |
| 20260507043240 | 7 | 44 | 25.7 | 48.3 | 0.00 | 0.00 | 0.00 | 69 | 1016.7 |
| 20260507042737 | 7 | 41 | 19.3 | 57.9 | 0.00 | 0.00 | 0.00 | 68 | 1017.2 |
| 20260507042232 | 7 | 32 | 27.4 | 51.5 | 0.00 | 0.00 | 0.00 | 69 | 1017.0 |
| 20260507041730 | 7 | 50 | 25.7 | 40.2 | 0.00 | 0.00 | 0.00 | 69 | 1016.4 |
| 20260507041226 | 7 | 39 | 37.0 | 61.2 | 0.00 | 0.00 | 0.00 | 69 | 1016.3 |
| 20260507040723 | 8 | 14 | 38.6 | 49.9 | 0.00 | 0.00 | 0.00 | 68 | 1016.0 |
| 20260507040219 | 8 | 53 | 54.7 | 54.7 | 0.00 | 0.00 | 0.00 | 68 | 1016.0 |
| 20260507035715 | 8 | 52 | 40.2 | 57.9 | 0.00 | 0.00 | 0.00 | 67 | 1016.0 |
| 20260507035211 | 8 | 53 | 35.4 | 64.4 | 0.00 | 0.00 | 0.00 | 67 | 1015.9 |
| 20260507034708 | 8 | 45 | 40.2 | 49.9 | 0.00 | 0.00 | 0.00 | 66 | 1015.8 |
| 20260507034206 | 8 | 38 | 35.4 | 54.7 | 0.00 | 0.00 | 0.00 | 66 | 1015.8 |
| 20260507033704 | 8 | 52 | 46.7 | 59.5 | 0.00 | 0.00 | 0.00 | 65 | 1015.4 |
| 20260507033201 | 8 | 46 | 46.7 | 57.9 | 0.00 | 0.00 | 0.00 | 65 | 1015.1 |
| 20260507032658 | 9 | 42 | 45.1 | 51.5 | 0.00 | 0.00 | 0.00 | 64 | 1015.4 |
| 20260507032154 | 9 | 42 | 37.0 | 51.5 | 0.00 | 0.00 | 0.00 | 63 | 1015.3 |
| 20260507031651 | 9 | 50 | 40.2 | 54.7 | 0.00 | 0.00 | 0.00 | 62 | 1015.1 |
| 20260507031147 | 10 | 27 | 27.4 | 56.3 | 0.00 | 0.00 | 0.00 | 62 | 1014.8 |
| 20260507030644 | 10 | 43 | 24.1 | 53.1 | 0.00 | 0.00 | 0.00 | 60 | 1015.1 |
| 20260507030142 | 10 | 37 | 24.1 | 49.9 | 0.00 | 0.00 | 0.00 | 59 | 1015.0 |
| 20260507025639 | 11 | 29 | 27.4 | 53.1 | 0.00 | 0.00 | 0.00 | 57 | 1014.9 |
| 20260507025136 | 11 | 57 | 54.7 | 69.2 | 0.00 | 0.00 | 0.00 | 53 | 1014.5 |
| 20260507024634 | 12 | 31 | 33.8 | 59.5 | 0.00 | 0.00 | 0.00 | 52 | 1014.6 |
| 20260507024131 | 12 | 53 | 30.6 | 62.8 | 0.00 | 0.00 | 0.00 | 51 | 1014.2 |
| 20260507023626 | 12 | 50 | 40.2 | 67.6 | 0.00 | 0.00 | 0.00 | 50 | 1014.2 |
| 20260507023124 | 13 | 49 | 45.1 | 69.2 | 0.00 | 0.00 | 0.00 | 50 | 1013.9 |
| 20260507022621 | 13 | 56 | 61.2 | 66.0 | 0.00 | 0.00 | 0.00 | 49 | 1013.7 |
| 20260507022116 | 13 | 23 | 41.8 | 57.9 | 0.00 | 0.00 | 0.00 | 49 | 1013.7 |
| 20260507021613 | 13 | 38 | 51.5 | 78.9 | 0.00 | 0.00 | 0.00 | 48 | 1013.0 |
| 20260507021109 | 13 | 53 | 69.2 | 72.4 | 0.00 | 0.00 | 0.00 | 47 | 1012.5 |
| 20260507020607 | 14 | 12 | 48.3 | 77.2 | 0.00 | 0.00 | 0.00 | 46 | 1012.4 |
| 20260507015602 | 15 | 52 | 43.5 | 85.3 | 0.00 | 0.00 | 0.00 | 44 | 1011.2 |
| 20260507015059 | 17 | 14 | 41.8 | 70.8 | 0.00 | 0.00 | 0.00 | 38 | 1011.1 |
| 20260507014555 | 20 | 333 | 27.4 | 37.0 | 0.00 | 0.00 | 0.00 | 26 | 1010.0 |
| 20260507014051 | 20 | 330 | 14.5 | 22.5 | 0.00 | 0.00 | 0.00 | 25 | 1009.9 |
| 20260507013548 | 20 | 317 | 14.5 | 25.7 | 0.00 | 0.00 | 0.00 | 25 | 1009.8 |
| 20260507013045 | 20 | 278 | 32.2 | 33.8 | 0.00 | 0.00 | 0.00 | 23 | 1009.5 |
| 20260507012542 | 21 | 284 | 17.7 | 17.7 | 0.00 | 0.00 | 0.00 | 20 | 1009.5 |
| 20260507012038 | 21 | 275 | 17.7 | 22.5 | 0.00 | 0.00 | 0.00 | 20 | 1009.4 |
| 20260507011535 | 21 | 268 | 16.1 | 27.4 | 0.00 | 0.00 | 0.00 | 19 | 1009.2 |
| 20260507011026 | 21 | 271 | 24.1 | 27.4 | 0.00 | 0.00 | 0.00 | 19 | 1009.2 |
| 20260507010520 | 21 | 254 | 20.9 | 35.4 | 0.00 | 0.00 | 0.00 | 19 | 1008.9 |
| 20260507010017 | 21 | 274 | 22.5 | 25.7 | 0.00 | 0.00 | 0.00 | 20 | 1009.1 |
| 20260507005515 | 21 | 276 | 29.0 | 33.8 | 0.00 | 0.00 | 0.00 | 19 | 1008.7 |
| 20260507005011 | 22 | 268 | 24.1 | 35.4 | 0.00 | 0.00 | 0.00 | 19 | 1008.9 |
| 20260507004508 | 22 | 248 | 24.1 | 38.6 | 0.00 | 0.00 | 0.00 | 16 | 1008.4 |
| 20260507004006 | 22 | 267 | 29.0 | 35.4 | 0.00 | 0.00 | 0.00 | 16 | 1008.7 |
| 20260507003500 | 22 | 251 | 32.2 | 35.4 | 0.00 | 0.00 | 0.00 | 16 | 1008.4 |
| 20260507002955 | 21 | 268 | 25.7 | 40.2 | 0.00 | 0.00 | 0.00 | 17 | 1008.7 |
| 20260507002453 | 22 | 254 | 37.0 | 49.9 | 0.00 | 0.00 | 0.00 | 16 | 1008.3 |
| 20260507001949 | 22 | 259 | 33.8 | 43.5 | 0.00 | 0.00 | 0.00 | 15 | 1008.4 |
| 20260507001446 | 22 | 243 | 38.6 | 49.9 | 0.00 | 0.00 | 0.00 | 15 | 1008.7 |
| 20260507000944 | 22 | 273 | 37.0 | 43.5 | 0.00 | 0.00 | 0.00 | 16 | 1008.6 |
| 20260507000439 | 23 | 246 | 30.6 | 38.6 | 0.00 | 0.00 | 0.00 | 15 | 1008.3 |
| 20260506235935 | 22 | 243 | 35.4 | 40.2 | 0.00 | 0.00 | 0.00 | 16 | 1008.3 |
| 20260506235432 | 22 | 249 | 45.1 | 49.9 | 0.00 | 0.00 | 0.00 | 15 | 1008.3 |
| 20260506234927 | 23 | 264 | 38.6 | 59.5 | 0.00 | 0.00 | 0.00 | 15 | 1008.2 |
| 20260506234426 | 22 | 264 | 38.6 | 48.3 | 0.00 | 0.00 | 0.00 | 15 | 1008.2 |
| 20260506233923 | 22 | 260 | 38.6 | 51.5 | 0.00 | 0.00 | 0.00 | 14 | 1008.2 |
| 20260506233419 | 22 | 236 | 37.0 | 41.8 | 0.00 | 0.00 | 0.00 | 14 | 1008.3 |
| 20260506232916 | 23 | 246 | 30.6 | 38.6 | 0.00 | 0.00 | 0.00 | 14 | 1008.4 |
| 20260506232412 | 23 | 228 | 45.1 | 46.7 | 0.00 | 0.00 | 0.00 | 14 | 1008.2 |
| 20260506231908 | 22 | 256 | 33.8 | 46.7 | 0.00 | 0.00 | 0.00 | 15 | 1008.0 |
| 20260506231406 | 22 | 249 | 33.8 | 45.1 | 0.00 | 0.00 | 0.00 | 15 | 1008.4 |
| 20260506230903 | 22 | 237 | 35.4 | 38.6 | 0.00 | 0.00 | 0.00 | 14 | 1008.3 |
| 20260506230359 | 23 | 242 | 17.7 | 35.4 | 0.00 | 0.00 | 0.00 | 14 | 1008.2 |
| 20260506225856 | 23 | 237 | 41.8 | 49.9 | 0.00 | 0.00 | 0.00 | 14 | 1008.3 |
| 20260506225353 | 22 | 233 | 45.1 | 53.1 | 0.00 | 0.00 | 0.00 | 15 | 1008.1 |
| 20260506224850 | 22 | 238 | 30.6 | 38.6 | 0.00 | 0.00 | 0.00 | 15 | 1008.2 |
| 20260506224348 | 22 | 255 | 24.1 | 38.6 | 0.00 | 0.00 | 0.00 | 16 | 1008.1 |
| 20260506223844 | 22 | 266 | 29.0 | 46.7 | 0.00 | 0.00 | 0.00 | 16 | 1008.2 |
| 20260506223339 | 22 | 268 | 24.1 | 27.4 | 0.00 | 0.00 | 0.00 | 16 | 1008.2 |
| 20260506222836 | 22 | 283 | 24.1 | 30.6 | 0.00 | 0.00 | 0.00 | 16 | 1008.0 |
| 20260506222332 | 22 | 231 | 29.0 | 37.0 | 0.00 | 0.00 | 0.00 | 16 | 1008.4 |
| 20260506221830 | 22 | 224 | 16.1 | 24.1 | 0.00 | 0.00 | 0.00 | 16 | 1008.3 |
| 20260506221327 | 22 | 227 | 22.5 | 27.4 | 0.00 | 0.00 | 0.00 | 16 | 1008.3 |
| 20260506220825 | 23 | 255 | 38.6 | 40.2 | 0.00 | 0.00 | 0.00 | 16 | 1008.3 |
| 20260506220320 | 22 | 275 | 20.9 | 41.8 | 0.00 | 0.00 | 0.00 | 16 | 1008.4 |
| 20260506215817 | 22 | 234 | 19.3 | 22.5 | 0.00 | 0.00 | 0.00 | 16 | 1008.2 |
| 20260506215313 | 22 | 274 | 29.0 | 38.6 | 0.00 | 0.00 | 0.00 | 17 | 1008.4 |
| 20260506214809 | 22 | 246 | 29.0 | 40.2 | 0.00 | 0.00 | 0.00 | 17 | 1008.7 |
| 20260506214306 | 22 | 248 | 40.2 | 41.8 | 0.00 | 0.00 | 0.00 | 18 | 1008.6 |
| 20260506213804 | 22 | 255 | 35.4 | 49.9 | 0.00 | 0.00 | 0.00 | 18 | 1008.6 |
| 20260506213300 | 22 | 231 | 32.2 | 48.3 | 0.00 | 0.00 | 0.00 | 18 | 1008.7 |
| 20260506212758 | 21 | 255 | 20.9 | 29.0 | 0.00 | 0.00 | 0.00 | 20 | 1008.8 |
| 20260506212253 | 21 | 269 | 32.2 | 43.5 | 0.00 | 0.00 | 0.00 | 20 | 1008.9 |
| 20260506211748 | 21 | 241 | 19.3 | 25.7 | 0.00 | 0.00 | 0.00 | 22 | 1009.0 |
| 20260506211245 | 20 | 212 | 24.1 | 38.6 | 0.00 | 0.00 | 0.00 | 22 | 1008.8 |
| 20260506210743 | 21 | 208 | 33.8 | 37.0 | 0.00 | 0.00 | 0.00 | 22 | 1009.0 |
| 20260506210239 | 20 | 219 | 24.1 | 27.4 | 0.00 | 0.00 | 0.00 | 23 | 1008.9 |
| 20260506205736 | 20 | 225 | 24.1 | 27.4 | 0.00 | 0.00 | 0.00 | 24 | 1009.1 |
| 20260506205232 | 20 | 256 | 29.0 | 48.3 | 0.00 | 0.00 | 0.00 | 23 | 1009.4 |
| 20260506204729 | 21 | 229 | 32.2 | 43.5 | 0.00 | 0.00 | 0.00 | 22 | 1009.1 |
| 20260506204226 | 21 | 253 | 37.0 | 48.3 | 0.00 | 0.00 | 0.00 | 23 | 1009.4 |
| 20260506203724 | 21 | 234 | 43.5 | 45.1 | 0.00 | 0.00 | 0.00 | 23 | 1009.4 |
| 20260506203221 | 20 | 229 | 33.8 | 41.8 | 0.00 | 0.00 | 0.00 | 23 | 1009.4 |
| 20260506202719 | 22 | 229 | 32.2 | 46.7 | 0.00 | 0.00 | 0.00 | 22 | 1009.5 |
| 20260506202215 | 20 | 256 | 29.0 | 43.5 | 0.00 | 0.00 | 0.00 | 24 | 1009.2 |
| 20260506201712 | 20 | 250 | 19.3 | 27.4 | 0.00 | 0.00 | 0.00 | 24 | 1009.5 |
| 20260506201209 | 20 | 253 | 22.5 | 51.5 | 0.00 | 0.00 | 0.00 | 25 | 1009.5 |
| 20260506200705 | 20 | 229 | 32.2 | 54.7 | 0.00 | 0.00 | 0.00 | 24 | 1009.2 |
| 20260506200202 | 20 | 258 | 19.3 | 24.1 | 0.00 | 0.00 | 0.00 | 26 | 1009.5 |
| 20260506195659 | 19 | 239 | 17.7 | 24.1 | 0.00 | 0.00 | 0.00 | 26 | 1009.9 |
| 20260506195155 | 21 | 282 | 35.4 | 38.6 | 0.00 | 0.00 | 0.00 | 24 | 1009.9 |
| 20260506194653 | 20 | 202 | 19.3 | 35.4 | 0.00 | 0.00 | 0.00 | 24 | 1009.9 |
| 20260506194149 | 20 | 241 | 41.8 | 56.3 | 0.00 | 0.00 | 0.00 | 25 | 1009.8 |
| 20260506193647 | 20 | 235 | 38.6 | 59.5 | 0.00 | 0.00 | 0.00 | 24 | 1009.8 |
| 20260506193144 | 20 | 258 | 40.2 | 49.9 | 0.00 | 0.00 | 0.00 | 23 | 1009.9 |
| 20260506192640 | 20 | 254 | 20.9 | 35.4 | 0.00 | 0.00 | 0.00 | 25 | 1010.0 |
| 20260506192136 | 20 | 224 | 37.0 | 43.5 | 0.00 | 0.00 | 0.00 | 23 | 1009.8 |
| 20260506191633 | 19 | 224 | 16.1 | 38.6 | 0.00 | 0.00 | 0.00 | 27 | 1010.0 |
| 20260506191129 | 19 | 215 | 32.2 | 45.1 | 0.00 | 0.00 | 0.00 | 27 | 1010.1 |
| 20260506190627 | 20 | 236 | 19.3 | 49.9 | 0.00 | 0.00 | 0.00 | 25 | 1010.4 |
| 20260506190124 | 20 | 229 | 33.8 | 48.3 | 0.00 | 0.00 | 0.00 | 24 | 1010.4 |
| 20260506185621 | 19 | 277 | 24.1 | 41.8 | 0.00 | 0.00 | 0.00 | 30 | 1010.4 |
| 20260506185117 | 19 | 253 | 33.8 | 45.1 | 0.00 | 0.00 | 0.00 | 29 | 1010.5 |
| 20260506184614 | 18 | 251 | 32.2 | 32.2 | 0.00 | 0.00 | 0.00 | 33 | 1010.7 |
| 20260506184112 | 17 | 248 | 20.9 | 33.8 | 0.00 | 0.00 | 0.00 | 35 | 1010.7 |
| 20260506183608 | 18 | 251 | 32.2 | 48.3 | 0.00 | 0.00 | 0.00 | 34 | 1011.1 |
| 20260506183104 | 20 | 242 | 57.9 | 67.6 | 0.00 | 0.00 | 0.00 | 31 | 1010.9 |
| 20260506182602 | 18 | 242 | 54.7 | 61.2 | 0.00 | 0.00 | 0.00 | 30 | 1010.7 |
| 20260506182059 | 19 | 257 | 29.0 | 38.6 | 0.00 | 0.00 | 0.00 | 32 | 1011.3 |
| 20260506181557 | 18 | 237 | 37.0 | 41.8 | 0.00 | 0.00 | 0.00 | 31 | 1011.2 |
| 20260506181053 | 18 | 256 | 33.8 | 53.1 | 0.00 | 0.00 | 0.00 | 32 | 1011.2 |
| 20260506180550 | 18 | 235 | 24.1 | 45.1 | 0.00 | 0.00 | 0.00 | 33 | 1011.3 |
| 20260506180047 | 18 | 244 | 41.8 | 41.8 | 0.00 | 0.00 | 0.00 | 32 | 1011.4 |
| 20260506175543 | 17 | 246 | 22.5 | 37.0 | 0.00 | 0.00 | 0.00 | 34 | 1011.3 |
| 20260506175039 | 17 | 247 | 29.0 | 56.3 | 0.00 | 0.00 | 0.00 | 35 | 1011.4 |
| 20260506174538 | 17 | 240 | 33.8 | 48.3 | 0.00 | 0.00 | 0.00 | 34 | 1011.6 |
| 20260506174033 | 17 | 244 | 20.9 | 29.0 | 0.00 | 0.00 | 0.00 | 35 | 1011.5 |
| 20260506173532 | 16 | 256 | 24.1 | 40.2 | 0.00 | 0.00 | 0.00 | 36 | 1011.7 |
| 20260506173028 | 17 | 281 | 22.5 | 41.8 | 0.00 | 0.00 | 0.00 | 35 | 1011.7 |
| 20260506172526 | 17 | 257 | 22.5 | 30.6 | 0.00 | 0.00 | 0.00 | 35 | 1011.8 |
| 20260506172021 | 16 | 287 | 24.1 | 30.6 | 0.00 | 0.00 | 0.00 | 38 | 1012.0 |
| 20260506171519 | 16 | 271 | 14.5 | 35.4 | 0.00 | 0.00 | 0.00 | 37 | 1011.8 |
| 20260506171017 | 16 | 250 | 17.7 | 25.7 | 0.00 | 0.00 | 0.00 | 39 | 1011.8 |
| 20260506170514 | 16 | 274 | 14.5 | 25.7 | 0.00 | 0.00 | 0.00 | 40 | 1012.1 |
| 20260506170006 | 15 | 242 | 9.7 | 27.4 | 0.00 | 0.00 | 0.00 | 43 | 1012.1 |
| 20260506165504 | 15 | 240 | 20.9 | 27.4 | 0.00 | 0.00 | 0.00 | 42 | 1011.8 |
| 20260506165000 | 15 | 271 | 16.1 | 17.7 | 0.00 | 0.00 | 0.00 | 44 | 1011.8 |
| 20260506164457 | 15 | 104 | 3.2 | 17.7 | 0.00 | 0.00 | 0.00 | 49 | 1011.8 |
| 20260506163954 | 13 | 151 | 8.0 | 22.5 | 0.00 | 0.00 | 0.00 | 51 | 1012.1 |
| 20260506163449 | 14 | 239 | 14.5 | 25.7 | 0.00 | 0.00 | 0.00 | 51 | 1012.1 |
| 20260506162944 | 13 | 120 | 4.8 | 12.9 | 0.00 | 0.00 | 0.00 | 53 | 1012.3 |
| 20260506162442 | 13 | 145 | 6.4 | 24.1 | 0.00 | 0.00 | 0.00 | 56 | 1012.0 |
| 20260506161939 | 13 | 89 | 3.2 | 12.9 | 0.00 | 0.00 | 0.00 | 56 | 1012.0 |
| 20260506161437 | 13 | 139 | 19.3 | 20.9 | 0.00 | 0.00 | 0.00 | 59 | 1011.8 |
| 20260506160929 | 12 | 195 | 14.5 | 20.9 | 0.00 | 0.00 | 0.00 | 59 | 1012.0 |
| 20260506160426 | 11 | 206 | 19.3 | 22.5 | 0.00 | 0.00 | 0.00 | 62 | 1012.0 |
| 20260506155923 | 11 | 139 | 3.2 | 19.3 | 0.00 | 0.00 | 0.00 | 65 | 1012.2 |
| 20260506155420 | 11 | 201 | 16.1 | 20.9 | 0.00 | 0.00 | 0.00 | 65 | 1011.6 |
| 20260506153542 | 10 | 193 | 17.7 | 20.9 | 0.00 | 0.00 | 0.00 | 70 | 1011.8 |
| 20260506153039 | 10 | 181 | 11.3 | 22.5 | 0.00 | 0.00 | 0.00 | 71 | 1011.8 |
| 20260506152536 | 9 | 154 | 14.5 | 27.4 | 0.00 | 0.00 | 0.00 | 72 | 1011.8 |
| 20260506152035 | 9 | 158 | 20.9 | 25.7 | 0.00 | 0.00 | 0.00 | 73 | 1011.8 |